Weather History for KBIS - March, 2014

Change the Weather History Date:

Tuesday, March 11, 2014

  Actual Average Record
Temperature  
Mean Temperature 37 °F 28 °F  
Max Temperature 46 °F 38 °F 69 °F (2012)
Min Temperature 27 °F 18 °F -29 °F (1948)
Degree Days  
Heating Degree Days 28 37  
Month to date heating degree days 483 436  
Since 1 July heating degree days 7335 6867  
Cooling Degree Days 0 0  
Month to date cooling degree days 0 0  
Year to date cooling degree days 0 0  
Moisture  
Dew Point 29 °F    
Average Humidity 75    
Maximum Humidity 92    
Minimum Humidity 57    
Precipitation  
Precipitation 0.00 in 0.02 in 0.57 in (1988)
Month to date precipitation 0.10 0.27  
Year to date precipitation 0.67 1.21  
Snow  
Snow 0.00 in 0.30 in 7.50 in (1988)
Month to date snowfall 1.8 3.5  
Since 1 July snowfall 27.0 41.0  
Snow Depth 0.00 in    
Sea Level Pressure  
Sea Level Pressure 30.08 in    
Wind  
Wind Speed 8 mph (NNW)    
Max Wind Speed 22 mph    
Max Gust Speed 29 mph    
Visibility 10 miles    
Events      
T = Trace of Precipitation, MM = Missing Value Source: NWS Daily Summary

Daily Weather History Graph

Daily Weather History Graph

Search for Another Location

Airport or City:

Trip Planner

Search our weather history database for the weather conditions in past years. The results will help you decide how hot, cold, wet, or windy it might be!

Date:

Astronomy

Mar. 11, 2014 Rise Set
Actual Time 8:03 AM CDT 7:43 PM CDT
Civil Twilight 7:33 AM CDT 8:13 PM CDT
Nautical Twilight 6:58 AM CDT 8:48 PM CDT
Astronomical Twilight 6:22 AM CDT 9:24 PM CDT
Moon 3:08 PM CDT (3/11) 5:11 AM CDT (3/11)
Length of Visible Light 12h 40m
Length of Day
11h 39m
Waxing Gibbous, 78% of the Moon is Illuminated
Mar 11
Waxing Gibbous
Mar 16
Full
Mar 23
Last Quarter
Mar 30
New
Apr 7
First Quarter

Hourly Weather History & Observations

Time (CDT) Temp. Windchill Dew Point Humidity Pressure Visibility Wind Dir Wind Speed Gust Speed Precip Events Conditions
12:52 AM 37.0 °F 34.5 °F 30.9 °F 79% 29.83 in 10.0 mi NW 3.5 mph - N/A   Mostly Cloudy
1:52 AM 37.9 °F 33.5 °F 30.0 °F 73% 29.85 in 10.0 mi NNW 5.8 mph - N/A   Scattered Clouds
2:52 AM 37.0 °F 31.6 °F 30.0 °F 76% 29.88 in 10.0 mi NNW 6.9 mph - N/A   Scattered Clouds
3:52 AM 36.0 °F 29.0 °F 30.0 °F 79% 29.89 in 10.0 mi NW 9.2 mph - N/A   Clear
4:52 AM 35.1 °F 31.0 °F 28.9 °F 78% 29.92 in 10.0 mi NW 4.6 mph - N/A   Clear
5:52 AM 34.0 °F 28.0 °F 28.9 °F 82% 29.95 in 10.0 mi NNW 6.9 mph - N/A   Clear
6:52 AM 34.0 °F 28.0 °F 28.9 °F 82% 29.98 in 10.0 mi NNW 6.9 mph - N/A   Clear
7:52 AM 33.1 °F 27.7 °F 28.9 °F 85% 30.01 in 10.0 mi NW 5.8 mph - N/A   Clear
8:52 AM 33.1 °F 26.9 °F 28.0 °F 82% 30.04 in 10.0 mi NW 6.9 mph - N/A   Clear
9:52 AM 35.1 °F 27.4 °F 28.0 °F 76% 30.08 in 10.0 mi North 10.4 mph - N/A   Clear
10:30 AM 35.1 °F 28.6 °F 28.0 °F 76% 30.04 in 10.0 mi North 8.1 mph - N/A   Mostly Cloudy
10:52 AM 37.0 °F 30.4 °F 28.9 °F 73% 30.11 in 10.0 mi North 9.2 mph - N/A   Mostly Cloudy
11:01 AM 37.0 °F 28.5 °F 28.9 °F 73% 30.07 in 10.0 mi North 13.8 mph - N/A   Scattered Clouds
11:16 AM 37.0 °F 28.5 °F 28.9 °F 73% 30.08 in 10.0 mi North 13.8 mph - N/A   Mostly Cloudy
11:52 AM 36.0 °F 28.5 °F 28.0 °F 73% 30.16 in 10.0 mi North 10.4 mph - N/A   Overcast
12:52 PM 35.1 °F 26.9 °F 28.0 °F 76% 30.19 in 10.0 mi North 11.5 mph - N/A   Overcast
1:52 PM 39.0 °F 34.0 °F 30.0 °F 70% 30.18 in 10.0 mi NW 6.9 mph - N/A   Mostly Cloudy
2:17 PM 41.0 °F 35.2 °F 30.0 °F 65% 30.13 in 10.0 mi NW 9.2 mph - N/A   Scattered Clouds
2:25 PM 42.1 °F 34.9 °F 30.0 °F 62% 30.12 in 10.0 mi NW 13.8 mph 18.4 mph N/A   Mostly Cloudy
2:36 PM 43.0 °F 35.7 °F 30.9 °F 62% 30.12 in 10.0 mi NW 15.0 mph 18.4 mph N/A   Scattered Clouds
2:52 PM 44.1 °F 37.4 °F 30.0 °F 58% 30.16 in 10.0 mi NW 13.8 mph - N/A   Partly Cloudy
3:52 PM 44.1 °F 35.7 °F 30.0 °F 58% 30.17 in 10.0 mi NNW 20.7 mph 29.9 mph N/A   Mostly Cloudy
4:52 PM 43.0 °F 35.4 °F 30.0 °F 60% 30.18 in 10.0 mi NNW 16.1 mph 23.0 mph N/A   Partly Cloudy
5:52 PM 42.1 °F 34.9 °F 28.9 °F 60% 30.19 in 10.0 mi North 13.8 mph - N/A   Scattered Clouds
6:52 PM 39.0 °F 31.8 °F 26.1 °F 60% 30.20 in 10.0 mi NNW 11.5 mph - N/A   Partly Cloudy
7:52 PM 37.0 °F 34.5 °F 26.1 °F 65% 30.21 in 10.0 mi Variable 3.5 mph - N/A   Mostly Cloudy
8:52 PM 34.0 °F 31.0 °F 26.1 °F 73% 30.22 in 10.0 mi WSW 3.5 mph - N/A   Partly Cloudy
9:52 PM 30.9 °F - 26.1 °F 82% 30.21 in 10.0 mi Calm Calm - N/A   Clear
10:52 PM 28.0 °F 24.2 °F 24.1 °F 85% 30.21 in 10.0 mi WSW 3.5 mph - N/A   Clear
11:52 PM 28.9 °F 25.2 °F 26.1 °F 89% 30.19 in 10.0 mi West 3.5 mph - N/A   Overcast